Location: Góry Miechowskie
(50.3599°N, 20.1803°E)
Time: 16:10:20
(UTC+00:00)

Vanguard 1 Rocket - Pass Details

Date: 13 September 2024
Orbit: 650 x 4218 km, 34.3° (Epoch: 07 October)

Event Time Altitude Azimuth Distance (km) Brightness Sun altitude
Rises 03:19:25 0° 232° (SW) 6,067 - -9.1°
Exits shadow 03:21:07 - 230° (SW) 5,767 10.9 -8.8°
Reaches altitude 10° 03:23:01 10° 227° (SW) 5,461 10.8 -8.5°
Maximum altitude 03:39:56 47° 161° (SSE) 4,546 11.0 -5.9°
Drops below altitude 10° 04:03:30 10° 98° (E) 7,381 13.6 -2.2°
Sets 04:09:24 0° 94° (E) 8,264 14.6 -1.3°
